User: anonymous   Login
Location: Durham
(54.7770°N, 1.5720°W)
Time: 01:38:09
(UTC+01:00)
Language:

ISS - Orbit

View from above orbital plane
View from above orbital plane
View from above satellite
View from above satellite

Ground track
Ground track

The orbit data is extracted from the following two-line orbital elements,

1 25544U 98067A   15209.60854579  .00034861  00000-0  51605-3 0  9993
2 25544 051.6425 237.2009 0001110 009.8483 137.4838 15.54939781954489
Epoch (UTC): 28 July 2015 14:36:18
Eccentricity: 0.0001110
inclination: 51.6425°
perigee height: 401 km
apogee height: 403 km
right ascension of ascending node: 237.2009°
argument of perigee: 9.8483°
revolutions per day: 15.54939781
mean anomaly at epoch: 137.4838°
orbit number at epoch: 95448

The dashed part of the orbit path shows where the satellite is in the earth's shadow,  

DLR